Flag for Canada Weather past 2 weeks in Whitehorse, Yukon, Canada

Now
55 °F

Passing clouds.


Feels Like: 55 °F
Forecast: 50 / 68 °F
Wind: 3 mph from Southeast

Location: Withehorse

Current Time: May 22, 2015 at 2:24:16 AM

Latest Report: May 22, 2015 at 1:00 AM


Visibility: 15 mi

Pressure: 30.09 "Hg

Humidity: 55%

Dew point: 39 °F

Location of WhitehorseLocation

Historic Weather in Whitehorse — Graph

°F

Whitehorse temperature yesterday

Maximum temperature yesterday: 77 °F (at 3:00 PM)
Minimum temperature yesterday: 41 °F (at 6:00 AM)
Average temperature yesterday: 61 °F

Past Weeks' High & Low Weather Summary

 TemperatureHumidityPressure
High77 °F (May 21, 3:00 PM)80% (May 10, 7:00 AM)30.22 "Hg (May 10, 7:00 AM)
Low30 °F (May 10, 4:00 AM)10% (May 14, 3:00 PM)29.82 "Hg (May 14, 7:00 PM)
Average56 °F38%30.04 "Hg
* Reported May 7 1:00 AM — May 22 1:00 AM, Whitehorse, Weather by CustomWeather, © 2015

Note: Actual official high and low records may vary slightly from our data, if they occured in-between our weather recording intervals... More about our weather records

Advertising

Whitehorse weather history for previous 24 hours

 ConditionsComfort  
Time TempWeatherWind HumidityBarometerVisibility
1:00 AM
Fri, May 22
55 °FPassing clouds.3 mph55%30.09 "Hg15 mi
12:00 AM61 °FPassing clouds.6 mph42%30.09 "Hg40 mi
11:00 PM
Thu, May 21
66 °FBroken clouds.13 mph32%30.09 "Hg40 mi
10:00 PM68 °FBroken clouds.10 mph28%30.05 "Hg40 mi
9:00 PM72 °FThunderstorms. Broken clouds.No wind23%30.04 "Hg40 mi
8:00 PM75 °FBroken clouds.3 mph19%30.01 "Hg40 mi
7:00 PM75 °FBroken clouds.13 mph21%30.03 "Hg40 mi
6:00 PM73 °FBroken clouds.7 mph25%30.03 "Hg40 mi
5:00 PM75 °FBroken clouds.3 mph18%30.04 "Hg40 mi
4:00 PM75 °FPartly sunny.No wind19%30.05 "Hg40 mi
3:00 PM77 °FBroken clouds.8 mph18%30.05 "Hg40 mi
2:00 PM75 °FScattered clouds.8 mph22%30.06 "Hg40 mi
1:00 PM73 °FPassing clouds.5 mph25%30.08 "Hg40 mi
12:00 PM70 °FPassing clouds.6 mph25%30.09 "Hg40 mi
11:00 AM63 °FPassing clouds.2 mph34%30.11 "Hg40 mi
10:00 AM59 °FSunny.3 mph36%30.11 "Hg40 mi
9:00 AM54 °FPassing clouds.7 mph44%30.12 "Hg40 mi
8:00 AM46 °FPassing clouds.No wind57%30.14 "Hg40 mi
7:00 AM43 °FPassing clouds.2 mph66%30.13 "Hg40 mi
6:00 AM41 °FPassing clouds.3 mph70%30.14 "Hg40 mi
5:00 AM43 °FPassing clouds.2 mph61%30.13 "Hg40 mi
4:00 AM46 °FPassing clouds.5 mph50%30.12 "Hg15 mi
3:00 AM48 °FPassing clouds.3 mph46%30.10 "Hg15 mi
2:00 AM50 °FPassing clouds.5 mph47%30.09 "Hg15 mi
Weather by CustomWeather, © 2015

See weather overviewHow to use our weather pages